Погода в Катре

Индия     33°01′34″N   74°56′03″E
темп.,
°C
ветер,
м/с
пор.,
м/с
влажн.,
%
обл.,
%
осадки,
мм/ч
давл.,
гПа
погр.,
м
14 мая, пт
пт1423:30+16св33590 0.1 100855
02:30+16св33563 0.0 100647
05:30+15св44565 0.0 100759
08:30+22св2337100 0.1 1008375
11:30+27юз32290 0.1 10072205
14:30+29зюз34252 0.0 10042755
17:30+17с677285 5.0 1006263
20:30+17св457296 0.5 100673
15 мая, сб
сб1523:30+16св556623 0.6 100765
02:30+16св5562100 0.0 100775
05:30+16св5555100 0.0 100882
08:30+20св3444100 0.2 1010148
11:30+26св2229100 0.3 1009527
14:30+30з2321100 0.0 10062908
17:30+29зюз32211 0.0 10052706
20:30+22св32365 0.0 100717
16 мая, вс
вс1623:30+20св454882 0.0 100972
02:30+19ссв4449100 0.0 101071
05:30+19ссв6656100 0.1 1011153
08:30+23св5742100 0.0 1012310
11:30+29св432355 0.0 10101330
14:30+31зсз3319100 0.0 10072815
17:30+31сз2321100 0.0 10062430
20:30+25ссв223486 0.0 100821
17 мая, пн
пн1723:30+22св444224 0.0 100954
02:30+20св554499 0.0 100871
05:30+20св554683 0.0 100868
08:30+28св343058 0.0 1008371
11:30+33зюз231866 0.0 10073090
14:30+34юз43164 0.0 10043601
17:30+33юз32161 0.0 10033219
20:30+27всв112554 0.0 100511
18 мая, вт
вт1823:30+23св44373 0.0 100752
02:30+21св56460 0.0 100789
05:30+20св55480 0.0 100783
08:30+28св34280 0.0 1007383
11:30+34зюз231687 0.0 10053635
14:30+27ссв7634100 0.1 10061096
17:30+28всв3328100 0.1 1006462
20:30+25св443993 0.0 100877